OneWeb SL0258

operational
NORAD ID: 48976 Int'l Des: 2021-060 Owner: ONEWEBN Country: UK Constellation: oneweb
LEOCIRCULARPOLARONEWEB_TYPE

关于 OneWeb SL0258

正在加载描述...

实时位置

正在加载3D地球...

即将过境

高度历史

Altitude vs Time

uPlot chart will show altitude changes over time

两行轨道根数

1 48976U 21060K 25258.60332164 .00000097 00000-0 22118-3 0 9993
2 48976 87.8974 283.5185 0001888 95.4496 264.6850 13.16595851203463
Epoch: Sep 15, 2025 • Age: 18 hours

当前状态

高度 1222.8 km
速度 7.24 km/s
星下点 -61.61°S, 157.85°E
发射日期 Jul 1, 2021
运行时间 4.2 years
类型 internet

技术详情

分类 Payload
质量 148.00 kg
干质量 140.00 kg
总质量 148.00 kg
长度 1.30 m
直径 1.00 m
跨度 5.00 m
形状 Trapezoid+2 pan
制造商 ONEWUS
平台类型 ARROW
阶段状态 In Orbit
所有者/国家 ONEWEBN/UK

大型星座

Loading constellations...